Fulton, NY

6:53 PM EST on January 20, 2018 (GMT -0500)
Oswego County

Weather History for KFZY - December, 2012

Change the Weather History Date:

Saturday, December 29, 2012

  Actual Average (KSYR) Record (KSYR)
Temperature  
Mean Temperature 24 °F -  
Max Temperature 28 °F 34 °F 65 °F (1984)
Min Temperature 21 °F 19 °F -24 °F (1933)
Degree Days  
Heating Degree Days 40    
Moisture  
Dew Point 23 °F    
Average Humidity 86    
Maximum Humidity 93    
Minimum Humidity 74    
Precipitation  
Precipitation 0.20 in - - ()
Sea Level Pressure  
Sea Level Pressure 29.77 in    
Wind  
Wind Speed 5 mph (ENE)    
Max Wind Speed 14 mph    
Max Gust Speed 20 mph    
Visibility 3 miles    
Events Fog , Snow    
Averages and records for this station are not official NWS values.
T = Trace of Precipitation, MM = Missing Value Source: NWS Daily Summary

Daily Weather History Graph

Daily Weather History Graph

Search for Another Location

Airport or City:

Trip Planner

Search our weather history database for the weather conditions in past years. The results will help you decide how hot, cold, wet, or windy it might be!

Date:

Astronomy

Dec. 29, 2012 Rise Set
Actual Time 7:37 AM EST 4:38 PM EST
Civil Twilight 7:05 AM EST 5:10 PM EST
Nautical Twilight 6:29 AM EST 5:46 PM EST
Astronomical Twilight 5:54 AM EST 6:21 PM EST
Moon 6:12 PM EST (12/29) 8:07 AM EST (12/29)
Length of Visible Light 10h 05m
Length of Day
9h 00m
Full, 98% of the Moon is Illuminated
Dec 29
Full
Jan 4
Last Quarter
Jan 11
New
Jan 18
First Quarter
Jan 26
Full

Hourly Weather History & Observations

Time (EST) Temp. Windchill Dew Point Humidity Pressure Visibility Wind Dir Wind Speed Gust Speed Precip Events Conditions
12:22 AM 28.4 °F 21.2 °F 21.2 °F 74% 30.03 in 10.0 mi SW 6.9 mph - N/A   Overcast
12:54 AM 28.0 °F 20.0 °F 21.0 °F 75% 30.04 in 10.0 mi South 8.1 mph - N/A   Overcast
1:54 AM 27.0 °F 20.5 °F 19.9 °F 75% 30.02 in 10.0 mi South 5.8 mph - N/A   Overcast
2:54 AM 26.1 °F - 21.0 °F 81% 30.01 in 10.0 mi Calm Calm - N/A   Overcast
3:44 AM 24.8 °F - 19.4 °F 80% 29.96 in 10.0 mi Calm Calm - N/A   Scattered Clouds
4:54 AM 26.1 °F - 21.0 °F 81% 29.95 in 10.0 mi Calm Calm - N/A   Overcast
5:54 AM 26.1 °F - 21.0 °F 81% 29.96 in 10.0 mi Calm Calm - N/A   Overcast
6:05 AM 24.8 °F - 21.2 °F 86% 29.95 in 9.0 mi Calm Calm - N/A   Overcast
6:29 AM 26.6 °F 22.6 °F 21.2 °F 80% 29.94 in 10.0 mi SE 3.5 mph - N/A   Overcast
7:04 AM 26.6 °F 21.2 °F 21.2 °F 80% 29.92 in 1.8 mi SE 4.6 mph - 0.00 in Snow Light Snow
7:15 AM 26.6 °F 22.6 °F 23.0 °F 86% 29.91 in 1.2 mi ESE 3.5 mph - 0.00 in Snow Light Snow
7:42 AM 26.6 °F 22.6 °F 23.0 °F 86% 29.89 in 2.0 mi ESE 3.5 mph - 0.01 in Snow Light Snow
7:54 AM 26.1 °F 20.5 °F 23.0 °F 88% 29.90 in 1.5 mi ESE 4.6 mph - 0.01 in Snow Light Snow
8:02 AM 26.6 °F 22.6 °F 23.0 °F 86% 29.88 in 0.8 mi ESE 3.5 mph - 0.00 in Snow Light Snow
8:20 AM 26.6 °F 21.2 °F 23.0 °F 86% 29.86 in 1.2 mi East 4.6 mph - 0.01 in Snow Light Snow
8:34 AM 26.6 °F 21.2 °F 23.0 °F 86% 29.85 in 1.0 mi East 4.6 mph - 0.01 in Snow Light Snow
8:41 AM 26.6 °F 21.2 °F 23.0 °F 86% 29.85 in 1.5 mi East 4.6 mph - 0.01 in Snow Light Snow
8:49 AM 26.6 °F 20.0 °F 24.8 °F 93% 29.84 in 2.0 mi East 5.8 mph - 0.01 in Snow Light Snow
8:54 AM 26.1 °F 19.4 °F 24.1 °F 92% 29.85 in 1.5 mi East 5.8 mph - 0.01 in Snow Light Snow
9:00 AM 26.6 °F 17.5 °F 24.8 °F 93% 29.83 in 0.8 mi East 9.2 mph - 0.00 in Snow Light Snow
9:46 AM 26.6 °F 19.1 °F 24.8 °F 93% 29.80 in 0.5 mi East 6.9 mph - 0.01 in Fog , Snow Snow
9:54 AM 27.0 °F 18.7 °F 24.1 °F 89% 29.81 in 0.5 mi East 8.1 mph - 0.01 in Fog , Snow Snow
10:19 AM 26.6 °F 20.0 °F 24.8 °F 93% 29.79 in 0.8 mi East 5.8 mph - 0.01 in Snow Light Snow
10:54 AM 27.0 °F 21.6 °F 24.1 °F 89% 29.80 in 0.5 mi SE 4.6 mph - 0.03 in Fog , Snow Snow
11:02 AM 26.6 °F 20.0 °F 24.8 °F 93% 29.78 in 0.2 mi SE 5.8 mph - 0.00 in Fog , Snow Snow
11:54 AM 28.0 °F 22.8 °F 25.0 °F 88% 29.77 in 0.5 mi SE 4.6 mph - 0.03 in Fog , Snow Snow
12:09 PM 28.4 °F 24.6 °F 24.8 °F 86% 29.73 in 0.2 mi ESE 3.5 mph - 0.01 in Fog , Snow Snow
12:23 PM 28.4 °F - 24.8 °F 86% 29.72 in 0.5 mi Calm Calm - 0.02 in Fog , Snow Snow
12:47 PM 28.4 °F 24.6 °F 24.8 °F 86% 29.69 in 1.0 mi East 3.5 mph - 0.03 in Snow Light Snow
12:54 PM 28.0 °F 24.2 °F 25.0 °F 88% 29.71 in 1.0 mi East 3.5 mph - 0.03 in Snow Light Snow
1:06 PM 28.4 °F 24.6 °F 24.8 °F 86% 29.69 in 0.8 mi East 3.5 mph - 0.00 in Snow Light Snow
1:27 PM 28.4 °F - 24.8 °F 86% 29.69 in 0.5 mi Calm Calm - 0.01 in Fog , Snow Snow
1:54 PM 28.9 °F - 26.1 °F 89% 29.70 in 0.5 mi Calm Calm - 0.03 in Fog , Snow Snow
2:14 PM 28.4 °F 24.6 °F 24.8 °F 86% 29.67 in 0.2 mi ENE 3.5 mph - 0.02 in Fog , Snow Snow
2:27 PM 28.4 °F 24.6 °F 26.6 °F 93% 29.67 in 0.8 mi ENE 3.5 mph - 0.02 in Snow Light Snow
2:41 PM 28.4 °F 24.6 °F 24.8 °F 86% 29.67 in 1.0 mi ENE 3.5 mph - 0.03 in Snow Light Snow
2:45 PM 28.4 °F - 24.8 °F 86% 29.67 in 1.5 mi Calm Calm - 0.03 in Snow Light Snow
2:54 PM 28.9 °F 23.9 °F 25.0 °F 85% 29.68 in 3.0 mi NE 4.6 mph - 0.03 in Snow Light Snow
3:01 PM 28.4 °F 24.6 °F 24.8 °F 86% 29.66 in 3.0 mi ENE 3.5 mph - 0.00 in Snow Light Snow
3:19 PM 28.4 °F 24.6 °F 24.8 °F 86% 29.66 in 2.0 mi ENE 3.5 mph - 0.00 in Snow Light Snow
3:29 PM 28.4 °F - 24.8 °F 86% 29.66 in 1.5 mi Calm Calm - 0.00 in Snow Light Snow
3:42 PM 28.4 °F 24.6 °F 24.8 °F 86% 29.66 in 2.0 mi ENE 3.5 mph - 0.00 in Snow Light Snow
3:54 PM 28.9 °F 25.2 °F 25.0 °F 85% 29.67 in 2.5 mi East 3.5 mph - 0.00 in Snow Light Snow
4:10 PM 28.4 °F 24.6 °F 24.8 °F 86% 29.65 in 1.5 mi ENE 3.5 mph - 0.00 in Snow Light Snow
4:28 PM 28.4 °F 23.3 °F 24.8 °F 86% 29.65 in 1.0 mi NE 4.6 mph - 0.00 in Snow Light Snow
4:40 PM 28.4 °F - 24.8 °F 86% 29.65 in 0.8 mi Calm Calm - 0.00 in Snow Light Snow
4:46 PM 28.4 °F 24.6 °F 24.8 °F 86% 29.65 in 1.2 mi NNE 3.5 mph - 0.00 in Snow Light Snow
4:54 PM 28.0 °F 24.2 °F 25.0 °F 88% 29.67 in 1.8 mi NNE 3.5 mph - 0.01 in Snow Light Snow
5:05 PM 26.6 °F 21.2 °F 24.8 °F 93% 29.64 in 2.0 mi NNE 4.6 mph - 0.00 in Snow Light Snow
5:19 PM 28.4 °F 24.6 °F 24.8 °F 86% 29.65 in 1.8 mi NNW 3.5 mph - 0.00 in Snow Light Snow
5:29 PM 28.4 °F 22.2 °F 24.8 °F 86% 29.65 in 2.5 mi North 5.8 mph - 0.00 in Snow Light Snow
5:49 PM 26.6 °F 19.1 °F 24.8 °F 93% 29.65 in 3.0 mi North 6.9 mph - 0.00 in Snow Light Snow
5:54 PM 27.0 °F 18.7 °F 24.1 °F 89% 29.67 in 3.0 mi North 8.1 mph - 0.00 in Snow Light Snow
6:12 PM 26.6 °F 20.0 °F 24.8 °F 93% 29.65 in 2.5 mi North 5.8 mph - 0.00 in Snow Light Snow
6:22 PM 26.6 °F 20.0 °F 23.0 °F 86% 29.65 in 3.0 mi North 5.8 mph - 0.00 in Snow Light Snow
6:54 PM 25.0 °F 16.3 °F 21.9 °F 88% 29.68 in 4.0 mi NNW 8.1 mph - 0.00 in Snow Light Snow
7:16 PM 24.8 °F 14.6 °F 21.2 °F 86% 29.67 in 2.0 mi NNW 10.4 mph - 0.00 in Snow Light Snow
7:54 PM 24.1 °F 13.7 °F 19.9 °F 84% 29.70 in 3.0 mi NNW 10.4 mph - 0.00 in Snow Light Snow
8:06 PM 23.0 °F 11.7 °F 19.4 °F 86% 29.68 in 2.5 mi North 11.5 mph - 0.00 in Snow Light Snow
8:18 PM 23.0 °F 13.1 °F 19.4 °F 86% 29.69 in 5.0 mi North 9.2 mph - 0.00 in Snow Light Snow
8:54 PM 21.9 °F 9.2 °F 18.0 °F 85% 29.73 in 5.0 mi NNW 13.8 mph 19.6 mph 0.00 in Snow Light Snow
9:54 PM 21.0 °F 9.9 °F 17.1 °F 85% 29.75 in 4.0 mi NNW 10.4 mph - 0.00 in Snow Light Snow
10:54 PM 21.0 °F 11.4 °F 17.1 °F 85% 29.78 in 6.0 mi NNW 8.1 mph - 0.00 in Snow Light Snow
11:31 PM 21.2 °F 12.6 °F 17.6 °F 86% 29.76 in 4.0 mi NNW 6.9 mph - 0.00 in Snow Light Snow
11:54 PM 21.0 °F 11.4 °F 17.1 °F 85% 29.79 in 3.0 mi NNW 8.1 mph - 0.01 in Snow Light Snow